CAPE
0 0 0 0 0 0 0 0 3 0 0 0 0 0 45 112 650 1394 1854 1730 2669 1985 2101 1902 2724 2851 2669 2336 1924 1686 1551 1523 1572 1621 1478 1412 1166 1599 1924 1933 2014 1836 1503 1411 1302 1129 784 527 291
0 0 0 0 0 0 0 0 0 0 0 0 0 0 184 136 162 404 1394 1807 2833 2582 2158 1805 2667 2766 2630 2331 1937 1645 1556 1572 1650 1471 1072 1451 1258 1705 1883 1951 2083 1827 1250 957 774 556 434 374 262
0 0 0 0 0 0 0 0 0 0 0 0 0 0 11 197 79 236 1819 1996 2685 3271 2311 2384 2665 2698 2623 2307 1943 1658 1582 1657 1733 1700 1592 1486 1402 1779 1822 1960 2023 1714 1107 728 434 238 407 314 260
0 0 0 0 0 0 0 0 0 0 0 0 0 0 0 0 0 215 2027 1816 2610 3168 2172 2214 2585 2592 2565 2278 1920 1769 1766 1819 1780 1772 1631 1542 1574 1771 1774 1980 1990 1728 1096 696 391 478 551 453 381
0 0 0 0 0 0 0 0 0 0 0 0 0 0 0 0 0 135 1942 1993 2513 2783 2484 2052 2509 2535 2528 2364 2106 1988 1994 1840 1799 1763 1722 1651 1667 1728 1774 1958 1919 1734 1458 896 460 539 569 529 435
0 0 0 0 0 0 0 0 0 0 0 0 0 0 0 0 0 21 861 1990 2407 2820 2524 2038 2356 2471 2401 2394 2273 2121 2021 1920 1811 1719 1735 1695 1627 1651 1799 1876 1909 1689 1370 968 557 553 588 512 493
0 0 0 0 0 0 0 0 0 0 0 0 0 0 0 0 0 0 256 1536 2003 2622 2932 2546 1688 2049 2322 2267 2215 2113 1975 1837 1726 1635 1611 1638 1623 1597 1768 1797 1857 1712 1470 1080 653 498 455 485 488
0 0 0 0 0 0 0 0 0 0 0 0 0 0 0 0 0 0 0 219 1819 2306 3172 2804 1840 1160 1601 1805 2201 2103 1993 1829 1656 1565 1541 1584 1595 1674 1780 1606 1825 1769 1577 1068 694 445 313 245 306
0 0 0 0 0 0 0 0 0 0 0 0 0 0 0 0 0 0 0 0 1029 1967 2195 2613 2165 1404 782 587 1631 1988 1921 1871 1702 1619 1586 1315 805 1092 1199 926 1631 1751 1457 1004 668 443 324 234 207
0 0 0 0 0 0 0 0 0 0 0 0 0 0 0 0 0 0 0 0 5 1558 2174 2474 2374 2076 1195 440 1265 1336 1394 1546 1594 1401 1396 977 585 644 284 545 1603 1682 1419 973 656 471 370 116 0
0 0 0 0 0 0 0 0 0 0 0 0 0 0 0 0 0 0 0 0 0 6 1672 2423 2432 2174 1681 875 1497 694 694 858 1209 1236 1312 1030 534 670 193 476 1006 1252 1227 625 356 166 5 0 0
0 0 0 0 0 0 0 0 0 0 0 0 0 0 0 0 0 0 0 0 0 0 499 3069 3056 3084 2120 1494 1485 800 504 557 597 674 901 857 716 612 233 619 553 966 795 364 47 0 0 0 0
0 0 0 0 0 0 0 0 0 0 0 0 0 0 0 0 0 0 0 0 0 0 0 4 3752 2747 2870 3114 2140 1448 904 733 642 611 765 851 477 650 680 441 871 853 616 405 219 5 0 0 0
0 0 0 0 0 0 0 0 0 0 0 0 0 0 0 0 0 0 0 0 0 0 0 0 0 3236 2762 2445 2874 2942 1926 1146 982 815 745 879 635 890 947 697 1067 878 526 554 196 58 11 0 0
0 0 0 0 0 0 0 0 0 0 0 0 0 0 0 0 0 0 0 0 0 0 0 0 0 0 3080 3318 2330 2029 2819 2052 1116 1073 1182 823 1301 1179 1407 1163 1376 1312 771 1077 148 692 657 110 64
0 0 0 0 0 0 0 0 0 0 0 0 0 0 0 0 0 0 0 0 0 0 0 0 0 0 589 3450 3172 2296 2211 2463 2060 1272 1602 1199 1260 1497 1969 1533 986 1215 1749 1315 1239 841 398 163 73
0 0 0 0 0 0 0 0 0 0 0 0 0 0 0 0 0 0 0 0 0 0 0 6 0 0 0 28 1177 3048 2503 1961 2574 1896 1472 2111 1652 1326 2277 936 1338 2099 1418 1279 942 997 637 254 524
0 0 0 0 0 0 0 0 0 0 0 0 0 0 0 0 0 0 0 0 0 0 24 67 169 67 149 332 102 45 2115 1990 2452 2458 1715 1900 1907 1775 1234 1432 1593 1409 1190 1182 800 940 641 462 279
0 0 0 0 0 0 0 0 0 0 0 0 0 0 0 0 0 0 0 0 0 0 157 511 161 362 206 293 0 0 363 1784 2369 2707 1984 1296 1729 1695 1893 1557 1519 2071 825 1039 1218 1267 909 243 609
0 0 0 0 0 0 0 0 0 0 0 0 0 0 0 0 0 0 0 17 7 14 76 100 127 256 617 231 411 30 0 1064 1394 2140 2868 2065 1655 1420 1609 1646 1853 1397 1093 1500 1383 1086 414 612 438
0 0 0 0 0 0 0 0 0 0 0 0 0 0 0 0 0 0 0 1 5 35 72 71 365 629 688 517 405 321 164 177 1342 1489 3058 3030 2821 2007 1430 1942 1709 2138 1428 1336 1574 686 836 267 645
0 0 0 0 0 0 0 0 0 0 0 3 16 3 0 0 0 0 0 0 9 32 80 123 413 692 368 1195 426 662 144 310 561 2473 2385 3155 2869 2089 1593 1724 2190 1525 1606 1266 1309 1470 1016 968 401
0 0 0 0 0 0 0 0 0 0 15 1 0 0 0 0 0 0 0 0 2 11 117 292 614 863 916 1032 686 235 560 351 730 1294 2084 2478 2564 2402 1874 1841 1697 1782 1228 1305 1545 972 1209 751 985
0 0 0 0 0 0 0 40 0 24 10 26 20 0 0 0 0 0 0 4 29 39 68 350 297 575 675 652 781 1058 706 1091 1270 1837 1625 1669 1798 2229 2146 2035 2065 2245 1522 1425 961 832 1502 1227 492
0 0 0 0 0 0 33 43 54 88 98 36 0 0 0 0 0 0 0 0 4 15 55 26 68 294 517 593 567 591 915 1499 1999 1657 1444 904 1408 1843 2084 2184 2113 2227 2017 1562 1623 1427 1103 1624 1480
0 0 0 0 1 0 0 0 10 86 18 4 0 0 0 0 0 0 2 11 11 35 93 101 103 143 206 258 390 654 622 829 1657 1810 1821 1660 1843 2136 2285 2157 2403 2323 2251 1793 1535 1120 1297 1568 1485
0 0 0 0 0 1 0 0 142 56 39 11 0 0 0 0 0 0 0 0 0 3 1 4 22 114 271 185 445 491 749 748 1264 1868 2183 2002 2594 2557 2265 2383 2333 2511 2286 2086 1909 1211 1211 603 1384
0 0 1 4 18 2 0 0 81 141 65 16 10 1 0 0 0 0 0 0 0 0 0 0 10 24 115 156 147 83 97 763 1362 1638 1895 2296 2276 2652 2428 2632 2490 2363 2148 2142 1933 1617 1382 1187 865
0 7 31 22 37 44 29 0 110 326 114 9 11 11 0 0 0 0 0 0 0 0 0 0 6 25 28 75 100 211 236 460 692 1121 1310 1919 2254 2476 2460 2652 2525 2389 2180 1980 1755 1387 1051 845 888
0 6 32 419 8 265 158 5 50 196 65 151 21 0 0 0 0 0 0 0 0 0 0 0 0 0 4 10 73 46 338 593 755 713 1355 1561 2090 2342 2741 2932 2336 2538 2267 1877 1392 1193 1052 854 734
CIN
-0 -0 -0 -0 -0 -0 -0 -0 -2 -0 -0 -0 -0 -0 -171 -78 -87 -74 -75 -74 -108 -173 -352 -363 -203 -128 -111 -115 -126 -150 -155 -140 -95 -58 -72 -68 -105 -45 -9 -0 -0 -0 -7 -14 -26 -40 -83 -125 -196
-0 -0 -0 -0 -0 -0 -0 -0 -0 -0 -0 -0 -0 -0 -147 -113 -188 -175 -151 -111 -68 -242 -330 -358 -207 -159 -119 -125 -126 -154 -155 -130 -87 -89 -159 -58 -102 -34 -8 -2 -0 -0 -27 -89 -106 -145 -164 -176 -221
-0 -0 -0 -0 -0 -0 -0 -0 -0 -0 -0 -0 -0 -0 -153 -82 -262 -246 -156 -141 -72 -163 -270 -275 -207 -170 -138 -134 -151 -152 -147 -110 -82 -62 -62 -64 -63 -20 -6 -0 -0 -3 -52 -113 -174 -229 -169 -197 -218
-0 -0 -0 -0 -0 -0 -0 -0 -0 -0 -0 -0 -0 -0 -0 -0 -0 -244 -148 -153 -74 -127 -244 -339 -220 -195 -159 -150 -176 -148 -118 -91 -75 -53 -54 -54 -44 -11 -5 -0 -0 -0 -57 -109 -183 -157 -135 -157 -171
-0 -0 -0 -0 -0 -0 -0 -0 -0 -0 -0 -0 -0 -0 -0 -0 -0 -235 -104 -134 -97 -95 -223 -321 -224 -184 -148 -134 -142 -112 -82 -88 -91 -68 -44 -44 -38 -13 -7 -0 -0 -0 -10 -87 -166 -139 -123 -132 -153
-0 -0 -0 -0 -0 -0 -0 -0 -0 -0 -0 -0 -0 -0 -0 -0 -0 -184 -129 -42 -59 -85 -159 -173 -237 -189 -174 -131 -126 -107 -83 -80 -78 -76 -59 -37 -23 -20 -5 -0 -0 -0 -5 -57 -126 -128 -116 -128 -123
-0 -0 -0 -0 -0 -0 -0 -0 -0 -0 -0 -0 -0 -0 -0 -0 -0 -0 -175 -50 -8 -15 -128 -143 -262 -236 -164 -161 -139 -124 -110 -107 -99 -106 -85 -56 -36 -21 -9 -4 -2 -2 -5 -30 -116 -148 -152 -145 -130
-0 -0 -0 -0 -0 -0 -0 -0 -0 -0 -0 -0 -0 -0 -0 -0 -0 -0 -0 -154 -18 -2 -20 -176 -130 -395 -282 -219 -130 -120 -113 -109 -103 -104 -93 -63 -39 -23 -14 -27 -13 -8 -2 -43 -115 -167 -208 -220 -203
-0 -0 -0 -0 -0 -0 -0 -0 -0 -0 -0 -0 -0 -0 -0 -0 -0 -0 -0 -0 -32 -1 -3 -53 -135 -207 -401 -437 -226 -123 -106 -99 -101 -100 -94 -118 -211 -124 -88 -136 -31 -16 -21 -67 -142 -195 -228 -248 -245
-0 -0 -0 -0 -0 -0 -0 -0 -0 -0 -0 -0 -0 -0 -0 -0 -0 -0 -0 -0 -7 -1 -1 -27 -45 -127 -197 -391 -306 -268 -230 -179 -145 -171 -155 -214 -296 -262 -358 -247 -43 -28 -38 -95 -164 -212 -238 -364 -0
-0 -0 -0 -0 -0 -0 -0 -0 -0 -0 -0 -0 -0 -0 -0 -0 -0 -0 -0 -0 -0 -5 -6 -13 -32 -93 -151 -235 -294 -391 -391 -341 -238 -220 -194 -230 -322 -247 -427 -307 -171 -108 -85 -209 -290 -357 -435 -0 -0
-0 -0 -0 -0 -0 -0 -0 -0 -0 -0 -0 -0 -0 -0 -0 -0 -0 -0 -0 -0 -0 -0 -40 -10 -30 -27 -33 -63 -162 -302 -346 -387 -370 -354 -272 -266 -278 -289 -419 -282 -299 -194 -216 -314 -498 -0 -0 -0 -0
-0 -0 -0 -0 -0 -0 -0 -0 -0 -0 -0 -0 -0 -0 -0 -0 -0 -0 -0 -0 -0 -0 -0 -222 -25 -52 -67 -60 -44 -99 -164 -275 -309 -316 -290 -238 -356 -269 -259 -316 -211 -235 -264 -327 -378 -536 -0 -0 -0
-0 -0 -0 -0 -0 -0 -0 -0 -0 -0 -0 -0 -0 -0 -0 -0 -0 -0 -0 -0 -0 -0 -0 -0 -0 -6 -49 -65 -99 -45 -73 -139 -184 -213 -267 -208 -263 -197 -181 -226 -127 -227 -271 -301 -393 -455 -537 -0 -0
-0 -0 -0 -0 -0 -0 -0 -0 -0 -0 -0 -0 -0 -0 -0 -0 -0 -0 -0 -0 -0 -0 -0 -0 -0 -0 -9 -21 -94 -78 -46 -25 -106 -132 -145 -244 -95 -106 -91 -98 -54 -71 -200 -132 -456 -203 -205 -407 -322
-0 -0 -0 -0 -0 -0 -0 -0 -0 -0 -0 -0 -0 -0 -0 -0 -0 -0 -0 -0 -0 -0 -0 -0 -0 -0 -54 -10 -8 -34 -33 -32 -69 -56 -40 -156 -131 -48 -34 -38 -76 -64 -42 -107 -107 -183 -274 -339 -373
-0 -0 -0 -0 -0 -0 -0 -0 -0 -0 -0 -0 -0 -0 -0 -0 -0 -0 -0 -0 -0 -0 -0 -11 -0 -0 -0 -75 -49 -6 -22 -37 -31 -13 -32 -50 -67 -66 -25 -113 -53 -33 -42 -75 -129 -111 -205 -338 -204
-0 -0 -0 -0 -0 -0 -0 -0 -0 -0 -0 -0 -0 -0 -0 -0 -0 -0 -0 -0 -0 -0 -23 -35 -37 -69 -48 -50 -92 -8 -6 -12 -12 -64 -17 -47 -39 -45 -65 -28 -36 -53 -44 -69 -197 -130 -213 -248 -285
-0 -0 -0 -0 -0 -0 -0 -0 -0 -0 -0 -0 -0 -0 -0 -0 -0 -0 -0 -0 -0 -0 -14 -17 -18 -16 -45 -32 -0 -0 -7 -6 -5 -22 -84 -35 -37 -33 -53 -23 -30 -34 -89 -58 -80 -83 -131 -333 -163
-0 -0 -0 -0 -0 -0 -0 -0 -0 -0 -0 -0 -0 -0 -0 -0 -0 -0 -0 -15 -8 -11 -32 -26 -22 -20 -27 -43 -53 -24 -0 -17 -11 -12 -41 -39 -91 -27 -30 -37 -17 -35 -35 -47 -62 -95 -282 -197 -216
-0 -0 -0 -0 -0 -0 -0 -0 -0 -0 -0 -0 -0 -0 -0 -0 -0 -0 -0 -5 -17 -12 -36 -40 -15 -8 -17 -21 -21 -44 -76 -51 -22 -19 -50 -26 -44 -50 -34 -15 -32 -34 -37 -23 -51 -158 -145 -290 -161
-0 -0 -0 -0 -0 -0 -0 -0 -0 -0 -0 -4 -9 -5 -0 -0 -0 -0 -0 -0 -3 -11 -50 -17 -7 -10 -6 -6 -14 -19 -41 -48 -22 -16 -37 -12 -26 -33 -39 -14 -17 -46 -28 -25 -47 -26 -83 -97 -210
-0 -0 -0 -0 -0 -0 -0 -0 -0 -0 -16 -4 -0 -0 -0 -0 -0 -0 -0 -0 -1 -8 -12 -2 -6 -5 -8 -7 -18 -34 -19 -29 -21 -12 -29 -23 -33 -16 -13 -23 -32 -35 -49 -9 -35 -27 -50 -105 -53
-0 -0 -0 -0 -0 -0 -0 -0 -0 -2 -32 -64 -24 -0 -0 -0 -0 -0 -0 -3 -5 -4 -1 -10 -14 -2 -3 -7 -9 -11 -30 -21 -25 -22 -12 -13 -20 -20 -26 -6 -13 -22 -46 -33 -31 -17 -18 -24 -89
-0 -0 -0 -0 -0 -0 -8 -33 -2 -22 -21 -27 -0 -0 -0 -0 -0 -0 -0 -0 -5 -12 -4 -33 -42 -24 -5 -3 -6 -12 -12 -16 -9 -43 -32 -16 -12 -29 -15 -18 -6 -5 -22 -45 -24 -33 -35 -18 -19
-0 -0 -0 -0 -0 -0 -0 -0 -16 -89 -90 -25 -0 -0 -0 -0 -0 -0 -5 -2 -2 -2 -2 -3 -8 -23 -36 -12 -9 -8 -26 -13 -10 -11 -11 -25 -15 -16 -9 -8 -5 -3 -7 -24 -36 -21 -41 -29 -33
-0 -0 -0 -0 -0 -0 -0 -0 -25 -141 -153 -4 -0 -0 -0 -0 -0 -0 -0 -0 -0 -19 -8 -16 -26 -14 -20 -14 -11 -14 -9 -21 -9 -7 -17 -15 -9 -8 -18 -5 -2 -1 -5 -9 -13 -0 -29 -37 -23
-0 -0 -0 -0 -0 -0 -0 -0 -4 -4 -12 -17 -17 -37 -0 -0 -0 -0 -0 -0 -0 -0 -0 -0 -57 -39 -7 -6 -9 -5 -18 -13 -10 -9 -8 -5 -9 -4 -7 -2 -5 -3 -5 -2 -8 -16 -37 -21 -8
-0 -0 -0 -1 -0 -4 -0 -0 -4 -11 -36 -11 -9 -4 -0 -0 -0 -0 -0 -0 -0 -0 -0 -0 -15 -12 -16 -10 -10 -13 -12 -8 -9 -8 -19 -9 -12 -12 -7 -2 -0 -7 -13 -8 -5 -11 -0 -3 -3
-0 -0 -0 -9 -0 -0 -2 -0 -30 -2 -0 -0 -6 -0 -0 -0 -0 -0 -0 -0 -0 -0 -0 -0 -0 -1 -30 -35 -12 -38 -10 -8 -8 -13 -7 -18 -9 -15 -3 -2 -13 -2 -3 -13 -2 -0 -0 -0 -4
Wind_Speed
nan nan nan nan nan nan nan nan nan nan nan nan nan nan nan 26 24 13 18 15 32 25 21 19 19 17 14 15 17 13 10 12 13 14 14 13 13 12 12 10 8 9 9 9 10 10 10 11 10
nan nan nan nan nan nan nan nan nan nan nan nan nan nan 35 30 26 22 17 10 27 27 24 23 20 20 19 16 17 17 13 14 15 15 16 13 12 11 12 10 10 9 10 11 11 11 12 13 13
nan nan nan nan nan nan nan nan nan nan nan nan nan nan nan 20 nan 19 23 12 24 26 21 26 25 26 22 20 17 20 17 16 17 16 15 14 13 12 11 9 9 10 10 10 11 12 12 13 14
nan nan nan nan nan nan nan nan nan nan nan nan nan nan nan nan nan 23 28 24 28 29 24 29 30 27 23 18 18 19 19 18 18 17 17 16 15 14 12 10 10 9 10 11 11 12 13 13 14
nan nan nan nan nan nan nan nan nan nan nan nan nan nan nan nan nan 27 30 27 30 27 33 26 28 21 21 18 19 20 21 21 20 20 19 17 18 17 16 14 12 11 11 12 12 12 13 13 14
nan nan nan nan nan nan nan nan nan nan nan nan nan nan nan nan nan nan 26 32 33 35 33 26 27 25 26 24 26 25 25 25 24 22 21 19 19 19 18 18 17 16 15 15 15 15 16 14 13
nan nan nan nan nan nan nan nan nan nan nan nan nan nan nan nan nan nan 29 28 29 35 35 33 28 31 29 29 29 29 28 26 25 24 24 23 22 21 21 22 22 19 19 18 17 17 17 16 14
nan nan nan nan nan nan nan nan nan nan nan nan nan nan nan nan nan nan nan 28 31 36 37 34 35 34 31 29 31 32 31 29 30 26 25 25 24 23 23 24 24 23 21 20 18 17 17 16 14
nan nan nan nan nan nan nan nan nan nan nan nan nan nan nan nan nan nan nan nan 30 36 35 37 38 36 30 32 32 33 33 32 32 33 33 32 25 25 25 22 29 27 25 22 20 19 18 17 16
nan nan nan nan nan nan nan nan nan nan nan nan nan nan nan nan nan nan nan nan nan 40 41 44 37 38 36 30 35 30 31 29 29 29 34 32 29 31 29 28 32 30 28 25 22 22 20 18 nan
nan nan nan nan nan nan nan nan nan nan nan nan nan nan nan nan nan nan nan nan nan nan 45 47 39 36 39 33 39 35 33 31 30 31 32 31 31 32 29 31 32 29 29 25 24 23 nan nan nan
nan nan nan nan nan nan nan nan nan nan nan nan nan nan nan nan nan nan nan nan nan nan 59 50 48 44 41 43 43 40 38 37 33 32 33 34 31 32 34 33 35 31 31 26 nan nan nan nan nan
nan nan nan nan nan nan nan nan nan nan nan nan nan nan nan nan nan nan nan nan nan nan nan nan 55 52 50 45 48 44 43 42 39 38 35 35 32 34 37 34 36 37 35 32 29 nan nan nan nan
nan nan nan nan nan nan nan nan nan nan nan nan nan nan nan nan nan nan nan nan nan nan nan nan nan 56 55 49 49 53 48 48 43 40 39 37 36 35 38 38 36 40 39 37 34 nan nan nan nan
nan nan nan nan nan nan nan nan nan nan nan nan nan nan nan nan nan nan nan nan nan nan nan nan nan nan 56 55 53 56 54 50 50 44 43 39 38 38 36 37 39 41 42 40 37 37 39 34 nan
nan nan nan nan nan nan nan nan nan nan nan nan nan nan nan nan nan nan nan nan nan nan nan nan nan nan 63 58 57 56 57 55 53 52 50 45 40 40 41 40 38 41 44 45 46 42 44 40 nan
nan nan nan nan nan nan nan nan nan nan nan nan nan nan nan nan nan nan nan nan nan nan nan nan nan nan nan nan 60 57 59 60 60 56 55 56 47 46 47 42 43 42 44 46 47 47 45 42 40
nan nan nan nan nan nan nan nan nan nan nan nan nan nan nan nan nan nan nan nan nan nan nan nan 70 nan 64 64 65 nan 60 62 62 61 60 59 56 51 52 49 47 49 48 48 46 48 48 47 45
nan nan nan nan nan nan nan nan nan nan nan nan nan nan nan nan nan nan nan nan nan nan 56 65 67 68 70 66 nan nan 59 63 62 64 60 56 61 58 56 54 52 54 50 50 50 48 51 48 49
nan nan nan nan nan nan nan nan nan nan nan nan nan nan nan nan nan nan nan nan nan nan nan 49 49 51 61 69 69 nan nan 64 64 67 68 66 57 56 61 57 58 55 55 52 52 50 48 48 52
nan nan nan nan nan nan nan nan nan nan nan nan nan nan nan nan nan nan nan nan nan nan nan nan 44 46 42 40 53 63 68 69 70 70 75 72 65 66 69 56 58 60 59 57 53 50 48 48 49
nan nan nan nan nan nan nan nan nan nan nan nan nan nan nan nan nan nan nan nan nan nan nan 49 45 46 43 40 38 38 48 62 70 76 74 74 66 69 66 61 58 56 62 58 55 52 49 51 49
nan nan nan nan nan nan nan nan nan nan nan nan nan nan nan nan nan nan nan nan nan nan 44 51 52 48 44 40 35 32 30 43 59 69 69 71 71 71 65 63 57 60 62 55 56 57 52 49 51
nan nan nan nan nan nan nan nan nan nan nan nan nan nan nan nan nan nan nan nan nan nan nan 49 49 48 43 40 39 32 28 26 39 57 64 67 75 77 70 62 61 61 62 58 50 51 43 51 49
nan nan nan nan nan nan nan nan nan nan nan nan nan nan nan nan nan nan nan nan nan nan nan nan nan 46 43 44 41 42 40 36 30 32 45 49 40 74 69 64 64 62 61 54 55 60 56 54 53
nan nan nan nan nan nan nan nan nan nan nan nan nan nan nan nan nan nan nan nan nan nan nan 43 44 46 42 42 45 46 45 44 40 37 33 56 79 64 66 63 63 60 55 63 56 56 60 55 53
nan nan nan nan nan nan nan nan 29 nan nan nan nan nan nan nan nan nan nan nan nan nan nan nan nan 42 46 44 46 46 47 46 45 41 41 40 40 52 52 53 57 58 64 58 62 64 56 37 55
nan nan nan nan nan nan nan nan nan 41 nan nan nan nan nan nan nan nan nan nan nan nan nan nan nan nan 38 41 41 nan nan 48 50 46 41 34 34 32 38 49 49 52 56 62 70 52 60 73 73
nan nan nan nan nan nan nan nan 11 20 25 nan nan nan nan nan nan nan nan nan nan nan nan nan nan nan nan nan 39 41 50 53 53 47 43 39 30 32 33 34 42 44 47 54 60 66 82 71 80
nan nan nan 35 nan 29 30 nan nan 14 nan 30 nan nan nan nan nan nan nan nan nan nan nan nan nan nan nan nan nan nan 45 55 55 50 44 39 32 25 26 31 36 40 47 45 63 66 75 81 79
Wind_Direction
nan nan nan nan nan nan nan nan nan nan nan nan nan nan nan 227 225 257 263 219 281 289 288 287 284 285 290 294 294 294 295 294 293 291 290 293 289 295 286 286 284 296 306 313 324 337 342 348 352
nan nan nan nan nan nan nan nan nan nan nan nan nan nan 254 241 231 249 232 225 297 302 296 287 286 289 294 291 293 287 290 294 294 298 304 297 295 293 287 290 297 298 305 311 320 331 340 346 346
nan nan nan nan nan nan nan nan nan nan nan nan nan nan nan 231 nan 243 248 246 291 290 301 286 290 295 293 290 293 295 295 296 299 301 300 294 289 286 282 286 290 302 303 308 313 321 330 336 342
nan nan nan nan nan nan nan nan nan nan nan nan nan nan nan nan nan 246 259 261 282 287 299 293 290 288 286 289 291 294 297 297 299 304 302 297 293 289 290 286 286 295 305 313 317 317 323 329 334
nan nan nan nan nan nan nan nan nan nan nan nan nan nan nan nan nan 251 266 272 273 278 278 293 289 287 294 300 296 295 295 295 299 301 299 301 298 297 295 289 287 290 299 310 319 320 320 326 329
nan nan nan nan nan nan nan nan nan nan nan nan nan nan nan nan nan nan 248 275 279 276 281 280 276 285 295 302 303 302 298 299 299 297 296 294 291 292 292 292 291 292 296 304 315 317 317 321 327
nan nan nan nan nan nan nan nan nan nan nan nan nan nan nan nan nan nan 263 264 272 278 277 278 273 278 289 296 300 299 301 300 297 295 293 294 292 293 293 293 292 295 300 301 308 313 314 316 322
nan nan nan nan nan nan nan nan nan nan nan nan nan nan nan nan nan nan nan 264 276 277 278 275 277 281 284 286 289 293 293 292 292 288 291 296 295 294 296 294 296 299 300 303 305 309 310 315 324
nan nan nan nan nan nan nan nan nan nan nan nan nan nan nan nan nan nan nan nan 267 277 274 271 280 279 280 284 283 285 291 290 286 287 284 281 282 291 295 300 300 301 302 303 303 306 307 312 318
nan nan nan nan nan nan nan nan nan nan nan nan nan nan nan nan nan nan nan nan nan 274 269 275 272 284 284 280 281 281 286 283 284 287 290 284 283 286 294 298 297 299 299 301 305 306 310 312 nan
nan nan nan nan nan nan nan nan nan nan nan nan nan nan nan nan nan nan nan nan nan nan 270 267 271 277 286 277 276 273 271 273 276 289 288 288 284 283 283 281 284 284 294 290 296 298 nan nan nan
nan nan nan nan nan nan nan nan nan nan nan nan nan nan nan nan nan nan nan nan nan nan 270 274 275 269 279 280 276 275 273 273 274 279 285 281 278 280 283 280 285 285 284 290 nan nan nan nan nan
nan nan nan nan nan nan nan nan nan nan nan nan nan nan nan nan nan nan nan nan nan nan nan nan 269 268 262 260 274 275 278 276 276 278 280 275 274 278 281 281 284 286 286 289 289 nan nan nan nan
nan nan nan nan nan nan nan nan nan nan nan nan nan nan nan nan nan nan nan nan nan nan nan nan nan 266 270 264 259 264 263 275 275 274 278 280 273 269 278 278 278 283 284 289 294 nan nan nan nan
nan nan nan nan nan nan nan nan nan nan nan nan nan nan nan nan nan nan nan nan nan nan nan nan nan nan 263 263 256 258 259 255 269 268 272 278 273 270 269 274 273 275 279 281 287 289 289 288 nan
nan nan nan nan nan nan nan nan nan nan nan nan nan nan nan nan nan nan nan nan nan nan nan nan nan nan 263 263 265 263 263 261 255 263 264 273 271 264 264 263 269 270 273 277 279 280 279 291 nan
nan nan nan nan nan nan nan nan nan nan nan nan nan nan nan nan nan nan nan nan nan nan nan nan nan nan nan nan 252 258 260 257 258 255 259 270 269 267 257 263 264 268 268 272 275 277 279 283 286
nan nan nan nan nan nan nan nan nan nan nan nan nan nan nan nan nan nan nan nan nan nan nan nan 263 nan 259 255 253 nan 255 259 260 257 255 251 266 266 266 259 257 266 265 269 274 278 280 278 281
nan nan nan nan nan nan nan nan nan nan nan nan nan nan nan nan nan nan nan nan nan nan 267 265 262 259 257 253 nan nan 249 253 255 259 260 257 256 265 263 262 260 259 265 266 273 273 277 279 277
nan nan nan nan nan nan nan nan nan nan nan nan nan nan nan nan nan nan nan nan nan nan nan 264 269 267 260 253 249 nan nan 247 253 254 257 257 254 260 256 260 259 260 262 264 266 270 270 273 277
nan nan nan nan nan nan nan nan nan nan nan nan nan nan nan nan nan nan nan nan nan nan nan nan 265 268 269 265 255 251 245 244 243 249 251 251 249 253 258 257 256 256 260 262 261 268 272 273 270
nan nan nan nan nan nan nan nan nan nan nan nan nan nan nan nan nan nan nan nan nan nan nan 272 263 258 257 262 260 257 250 243 246 244 243 246 246 249 248 251 251 254 254 258 262 262 266 267 273
nan nan nan nan nan nan nan nan nan nan nan nan nan nan nan nan nan nan nan nan nan nan 265 268 266 256 252 252 251 248 255 250 242 249 247 247 246 247 251 248 249 248 252 256 256 253 261 264 264
nan nan nan nan nan nan nan nan nan nan nan nan nan nan nan nan nan nan nan nan nan nan nan 272 267 265 263 256 244 248 252 251 248 247 248 252 250 246 247 243 245 244 251 250 257 270 266 264 267
nan nan nan nan nan nan nan nan nan nan nan nan nan nan nan nan nan nan nan nan nan nan nan nan nan 263 260 260 255 242 245 242 254 251 243 234 250 241 247 247 240 243 243 251 246 253 259 263 262
nan nan nan nan nan nan nan nan nan nan nan nan nan nan nan nan nan nan nan nan nan nan nan 277 276 276 268 260 251 249 247 248 248 256 250 229 250 248 247 248 248 238 245 244 246 250 255 257 261
nan nan nan nan nan nan nan nan 277 nan nan nan nan nan nan nan nan nan nan nan nan nan nan nan nan 267 270 261 257 251 248 248 245 244 247 245 247 249 249 249 250 251 242 250 246 248 250 258 254
nan nan nan nan nan nan nan nan nan 274 nan nan nan nan nan nan nan nan nan nan nan nan nan nan nan nan 274 272 261 nan nan 245 245 245 247 249 245 249 248 251 250 245 248 246 252 246 248 253 253
nan nan nan nan nan nan nan nan 275 250 248 nan nan nan nan nan nan nan nan nan nan nan nan nan nan nan nan nan 270 259 253 243 241 236 239 239 245 245 245 246 248 246 245 245 248 246 253 256 253
nan nan nan 303 nan 316 313 nan nan 297 nan 259 nan nan nan nan nan nan nan nan nan nan nan nan nan nan nan nan nan nan 252 246 240 233 228 227 228 238 237 240 246 247 244 243 243 250 256 259 260